Time,TemperatureF,DewpointF,PressureIn,WindDirection,WindDirectionDegrees,WindSpeedMPH,WindSpeedGustMPH,Humidity,HourlyPrecipIn,Conditions,Clouds,dailyrainin,SoftwareType,DateUTC
2013-05-14 00:02:00,74.0,50.0,30.15,SSE,152,2.0,10.0,43,0.00,,,0.00,,2013-05-14 05:02:00,
2013-05-14 00:12:00,74.0,51.0,30.15,South,179,2.0,12.0,44,0.00,,,0.00,,2013-05-14 05:12:00,
2013-05-14 00:21:00,74.0,51.0,30.15,South,179,2.0,12.0,44,0.00,,,0.00,,2013-05-14 05:21:00,
2013-05-14 00:32:00,73.0,50.0,30.15,SSE,153,2.0,7.0,45,0.00,,,0.00,,2013-05-14 05:32:00,
2013-05-14 00:42:00,73.0,51.0,30.15,South,187,2.0,7.0,46,0.00,,,0.00,,2013-05-14 05:42:00,
2013-05-14 00:52:00,73.0,51.0,30.15,South,187,2.0,7.0,46,0.00,,,0.00,,2013-05-14 05:52:00,
2013-05-14 01:01:00,72.0,51.0,30.15,SE,145,1.0,6.0,47,0.00,,,0.00,,2013-05-14 06:01:00,
2013-05-14 01:12:00,72.0,51.0,30.14,South,191,1.0,5.0,48,0.00,,,0.00,,2013-05-14 06:12:00,
2013-05-14 01:22:00,72.0,51.0,30.14,South,191,1.0,5.0,48,0.00,,,0.00,,2013-05-14 06:22:00,
2013-05-14 01:32:00,72.0,52.0,30.14,SE,139,3.0,7.0,49,0.00,,,0.00,,2013-05-14 06:32:00,
2013-05-14 01:42:00,71.0,52.0,30.14,SSW,194,0.0,3.0,51,0.00,,,0.00,,2013-05-14 06:42:00,
2013-05-14 01:51:00,71.0,52.0,30.14,SSW,194,0.0,3.0,51,0.00,,,0.00,,2013-05-14 06:51:00,
2013-05-14 02:02:00,71.0,53.0,30.13,South,175,1.0,5.0,53,0.00,,,0.00,,2013-05-14 07:02:00,
2013-05-14 02:11:00,71.0,53.0,30.13,South,175,1.0,5.0,53,0.00,,,0.00,,2013-05-14 07:11:00,
2013-05-14 02:21:00,71.0,54.0,30.13,SSE,160,1.0,5.0,54,0.00,,,0.00,,2013-05-14 07:21:00,
2013-05-14 02:32:00,70.0,54.0,30.13,WSW,239,1.0,5.0,56,0.00,,,0.00,,2013-05-14 07:32:00,
2013-05-14 02:41:00,70.0,54.0,30.13,SSE,153,0.0,5.0,57,0.00,,,0.00,,2013-05-14 07:41:00,
2013-05-14 02:52:00,70.0,54.0,30.13,SSE,153,0.0,5.0,57,0.00,,,0.00,,2013-05-14 07:52:00,
2013-05-14 03:02:00,69.0,54.0,30.13,SSE,164,1.0,3.0,59,0.00,,,0.00,,2013-05-14 08:02:00,
2013-05-14 03:11:00,68.0,54.0,30.12,SE,139,3.0,9.0,61,0.00,,,0.00,,2013-05-14 08:11:00,
2013-05-14 03:21:00,68.0,54.0,30.12,SE,139,3.0,9.0,61,0.00,,,0.00,,2013-05-14 08:21:00,
2013-05-14 03:31:00,68.0,54.0,30.12,ESE,120,2.0,6.0,62,0.00,,,0.00,,2013-05-14 08:31:00,
2013-05-14 03:41:00,68.0,54.0,30.11,SSE,152,2.0,6.0,62,0.00,,,0.00,,2013-05-14 08:41:00,
2013-05-14 03:51:00,68.0,54.0,30.11,SSE,152,2.0,6.0,62,0.00,,,0.00,,2013-05-14 08:51:00,
2013-05-14 04:02:00,67.0,54.0,30.12,South,181,1.0,6.0,64,0.00,,,0.00,,2013-05-14 09:02:00,
2013-05-14 04:11:00,67.0,55.0,30.11,SE,139,3.0,9.0,65,0.00,,,0.00,,2013-05-14 09:11:00,
2013-05-14 04:21:00,67.0,55.0,30.11,SE,139,3.0,9.0,65,0.00,,,0.00,,2013-05-14 09:21:00,
2013-05-14 04:32:00,67.0,55.0,30.11,SSE,149,1.0,8.0,66,0.00,,,0.00,,2013-05-14 09:32:00,
2013-05-14 04:44:00,67.0,55.0,30.11,SSE,150,0.0,7.0,66,0.00,,,0.00,,2013-05-14 09:44:00,
2013-05-14 04:54:00,67.0,55.0,30.11,SSE,150,0.0,7.0,66,0.00,,,0.00,,2013-05-14 09:54:00,
2013-05-14 05:04:00,67.0,55.0,30.11,SSW,198,2.0,9.0,66,0.00,,,0.00,,2013-05-14 10:04:00,
2013-05-14 05:14:00,67.0,56.0,30.11,ESE,120,2.0,7.0,67,0.00,,,0.00,,2013-05-14 10:14:00,
2013-05-14 05:25:00,67.0,56.0,30.11,ESE,120,2.0,7.0,67,0.00,,,0.00,,2013-05-14 10:25:00,
2013-05-14 05:33:00,67.0,56.0,30.11,South,170,1.0,7.0,68,0.00,,,0.00,,2013-05-14 10:33:00,
2013-05-14 05:42:00,67.0,56.0,30.11,SW,214,0.0,8.0,68,0.00,,,0.00,,2013-05-14 10:42:00,
2013-05-14 05:52:00,67.0,56.0,30.11,SW,214,0.0,8.0,68,0.00,,,0.00,,2013-05-14 10:52:00,
2013-05-14 06:02:00,66.0,56.0,30.11,WSW,243,1.0,6.0,70,0.00,,,0.00,,2013-05-14 11:02:00,
2013-05-14 06:11:00,66.0,56.0,30.11,WSW,243,1.0,6.0,70,0.00,,,0.00,,2013-05-14 11:11:00,
2013-05-14 06:21:00,66.0,56.0,30.11,SSW,210,1.0,6.0,70,0.00,,,0.00,,2013-05-14 11:21:00,
2013-05-14 06:32:00,66.0,56.0,30.12,SSE,158,0.0,5.0,71,0.00,,,0.00,,2013-05-14 11:32:00,
2013-05-14 06:43:00,66.0,57.0,30.12,SSW,212,1.0,6.0,72,0.00,,,0.00,,2013-05-14 11:43:00,
2013-05-14 06:52:00,66.0,57.0,30.12,SSW,212,1.0,6.0,72,0.00,,,0.00,,2013-05-14 11:52:00,
2013-05-14 07:02:00,66.0,57.0,30.12,WSW,239,0.0,5.0,73,0.00,,,0.00,,2013-05-14 12:02:00,
2013-05-14 07:12:00,66.0,57.0,30.12,WSW,239,0.0,5.0,73,0.00,,,0.00,,2013-05-14 12:12:00,
2013-05-14 07:21:00,66.0,57.0,30.13,SSW,201,0.0,4.0,73,0.00,,,0.00,,2013-05-14 12:21:00,
2013-05-14 07:32:00,66.0,57.0,30.13,SSW,201,0.0,4.0,73,0.00,,,0.00,,2013-05-14 12:32:00,
2013-05-14 07:42:00,67.0,58.0,30.14,SSE,150,1.0,6.0,72,0.00,,,0.00,,2013-05-14 12:42:00,
2013-05-14 07:51:00,67.0,58.0,30.14,SSE,150,1.0,6.0,72,0.00,,,0.00,,2013-05-14 12:51:00,
2013-05-14 08:01:00,68.0,57.0,30.14,SSW,193,3.0,8.0,69,0.00,,,0.00,,2013-05-14 13:01:00,
2013-05-14 08:11:00,69.0,58.0,30.14,SSE,166,1.0,7.0,69,0.00,,,0.00,,2013-05-14 13:11:00,
2013-05-14 08:22:00,69.0,58.0,30.14,SSE,166,1.0,7.0,69,0.00,,,0.00,,2013-05-14 13:22:00,
2013-05-14 08:32:00,69.0,58.0,30.14,SW,222,2.0,7.0,68,0.00,,,0.00,,2013-05-14 13:32:00,
2013-05-14 08:41:00,69.0,58.0,30.14,SW,222,2.0,7.0,68,0.00,,,0.00,,2013-05-14 13:41:00,
2013-05-14 08:52:00,69.0,58.0,30.14,SW,222,2.0,7.0,68,0.00,,,0.00,,2013-05-14 13:52:00,
2013-05-14 09:01:00,71.0,59.0,30.15,SW,228,2.0,7.0,66,0.00,,,0.00,,2013-05-14 14:01:00,
2013-05-14 09:11:00,72.0,59.0,30.16,SSW,210,4.0,10.0,64,0.00,,,0.00,,2013-05-14 14:11:00,
2013-05-14 09:22:00,72.0,59.0,30.16,SSW,210,4.0,10.0,64,0.00,,,0.00,,2013-05-14 14:22:00,
2013-05-14 09:31:00,72.0,59.0,30.16,SW,222,2.0,10.0,63,0.00,,,0.00,,2013-05-14 14:31:00,
2013-05-14 09:41:00,72.0,59.0,30.16,SW,222,2.0,10.0,63,0.00,,,0.00,,2013-05-14 14:41:00,
2013-05-14 09:52:00,72.0,59.0,30.16,SW,222,2.0,10.0,63,0.00,,,0.00,,2013-05-14 14:52:00,
2013-05-14 10:01:00,72.0,59.0,30.16,SW,222,2.0,10.0,63,0.00,,,0.00,,2013-05-14 15:01:00,
2013-05-14 10:12:00,75.0,59.0,30.16,ENE,65,2.0,10.0,58,0.00,,,0.00,,2013-05-14 15:12:00,
2013-05-14 10:22:00,75.0,59.0,30.16,ENE,65,2.0,10.0,58,0.00,,,0.00,,2013-05-14 15:22:00,
2013-05-14 10:33:00,76.0,60.0,30.16,SE,124,1.0,9.0,58,0.00,,,0.00,,2013-05-14 15:33:00,
2013-05-14 10:43:00,77.0,61.0,30.16,ESE,110,2.0,7.0,57,0.00,,,0.00,,2013-05-14 15:43:00,
2013-05-14 10:53:00,77.0,61.0,30.16,ESE,110,2.0,7.0,57,0.00,,,0.00,,2013-05-14 15:53:00,
2013-05-14 11:02:00,77.0,60.0,30.16,SSW,203,2.0,7.0,56,0.00,,,0.00,,2013-05-14 16:02:00,
2013-05-14 11:12:00,78.0,61.0,30.16,SSE,165,4.0,8.0,55,0.00,,,0.00,,2013-05-14 16:12:00,
2013-05-14 11:23:00,78.0,61.0,30.16,SSE,165,4.0,8.0,55,0.00,,,0.00,,2013-05-14 16:23:00,
2013-05-14 11:33:00,78.0,60.0,30.16,ESE,122,1.0,9.0,54,0.00,,,0.00,,2013-05-14 16:33:00,
2013-05-14 11:43:00,78.0,60.0,30.16,ESE,122,1.0,9.0,54,0.00,,,0.00,,2013-05-14 16:43:00,
2013-05-14 11:54:00,79.0,61.0,30.16,SW,228,1.0,7.0,54,0.00,,,0.00,,2013-05-14 16:54:00,
2013-05-14 12:03:00,81.0,62.0,30.15,SSE,153,2.0,5.0,52,0.00,,,0.00,,2013-05-14 17:03:00,
2013-05-14 12:13:00,81.0,60.0,30.14,ESE,112,4.0,10.0,49,0.00,,,0.00,,2013-05-14 17:13:00,
2013-05-14 12:24:00,81.0,60.0,30.14,ESE,112,4.0,10.0,49,0.00,,,0.00,,2013-05-14 17:24:00,
2013-05-14 12:32:00,82.0,61.0,30.14,South,179,1.0,7.0,50,0.00,,,0.00,,2013-05-14 17:32:00,
2013-05-14 12:43:00,82.0,61.0,30.14,South,179,1.0,7.0,50,0.00,,,0.00,,2013-05-14 17:43:00,
2013-05-14 12:52:00,83.0,61.0,30.13,South,179,1.0,6.0,48,0.00,,,0.00,,2013-05-14 17:52:00,
2013-05-14 13:02:00,83.0,61.0,30.13,South,179,1.0,6.0,48,0.00,,,0.00,,2013-05-14 18:02:00,
2013-05-14 13:12:00,83.0,61.0,30.13,South,179,1.0,6.0,48,0.00,,,0.00,,2013-05-14 18:12:00,
2013-05-14 13:22:00,84.0,58.0,30.11,SE,141,1.0,7.0,42,0.00,,,0.00,,2013-05-14 18:22:00,
2013-05-14 13:32:00,85.0,60.0,30.10,SE,134,1.0,6.0,43,0.00,,,0.00,,2013-05-14 18:32:00,
2013-05-14 13:42:00,85.0,60.0,30.10,SE,134,1.0,6.0,43,0.00,,,0.00,,2013-05-14 18:42:00,
2013-05-14 13:52:00,86.0,60.0,30.09,SW,221,1.0,10.0,41,0.00,,,0.00,,2013-05-14 18:52:00,
2013-05-14 14:01:00,86.0,59.0,30.09,East,94,1.0,11.0,40,0.00,,,0.00,,2013-05-14 19:01:00,
2013-05-14 14:11:00,86.0,58.0,30.08,South,176,3.0,8.0,39,0.00,,,0.00,,2013-05-14 19:11:00,
2013-05-14 14:22:00,86.0,58.0,30.08,South,176,3.0,8.0,39,0.00,,,0.00,,2013-05-14 19:22:00,
2013-05-14 14:32:00,86.0,57.0,30.07,ESE,103,2.0,11.0,38,0.00,,,0.00,,2013-05-14 19:32:00,
2013-05-14 14:42:00,86.0,57.0,30.07,SE,133,3.0,10.0,38,0.00,,,0.00,,2013-05-14 19:42:00,
2013-05-14 14:52:00,86.0,57.0,30.07,SE,133,3.0,10.0,38,0.00,,,0.00,,2013-05-14 19:52:00,
2013-05-14 15:02:00,87.0,60.0,30.06,SE,139,2.0,11.0,40,0.00,,,0.00,,2013-05-14 20:02:00,
2013-05-14 15:11:00,86.0,57.0,30.06,SW,235,5.0,11.0,38,0.00,,,0.00,,2013-05-14 20:11:00,
2013-05-14 15:23:00,86.0,57.0,30.06,SW,235,5.0,11.0,38,0.00,,,0.00,,2013-05-14 20:23:00,
2013-05-14 15:32:00,86.0,57.0,30.05,ENE,77,4.0,12.0,37,0.00,,,0.00,,2013-05-14 20:32:00,
2013-05-14 15:44:00,86.0,56.0,30.05,SW,226,3.0,13.0,36,0.00,,,0.00,,2013-05-14 20:44:00,
2013-05-14 15:52:00,86.0,56.0,30.05,SW,226,3.0,13.0,36,0.00,,,0.00,,2013-05-14 20:52:00,
2013-05-14 16:03:00,86.0,56.0,30.05,SW,226,3.0,13.0,36,0.00,,,0.00,,2013-05-14 21:03:00,
2013-05-14 16:12:00,87.0,55.0,30.03,West,281,3.0,12.0,34,0.00,,,0.00,,2013-05-14 21:12:00,
2013-05-14 16:23:00,87.0,55.0,30.03,West,281,3.0,12.0,34,0.00,,,0.00,,2013-05-14 21:23:00,
2013-05-14 16:33:00,87.0,56.0,30.03,ESE,120,4.0,11.0,35,0.00,,,0.00,,2013-05-14 21:33:00,
2013-05-14 16:43:00,86.0,55.0,30.03,ESE,117,4.0,11.0,35,0.00,,,0.00,,2013-05-14 21:43:00,
2013-05-14 16:52:00,86.0,55.0,30.03,ESE,117,4.0,11.0,35,0.00,,,0.00,,2013-05-14 21:52:00,
2013-05-14 17:03:00,86.0,55.0,30.02,WNW,302,4.0,12.0,35,0.00,,,0.00,,2013-05-14 22:03:00,
2013-05-14 17:13:00,86.0,54.0,30.01,SW,225,4.0,11.0,34,0.00,,,0.00,,2013-05-14 22:13:00,
2013-05-14 17:24:00,86.0,54.0,30.01,SW,225,4.0,11.0,34,0.00,,,0.00,,2013-05-14 22:24:00,
2013-05-14 17:34:00,86.0,54.0,30.01,South,188,7.0,13.0,33,0.00,,,0.00,,2013-05-14 22:34:00,
2013-05-14 17:45:00,86.0,56.0,30.00,East,100,2.0,10.0,36,0.00,,,0.00,,2013-05-14 22:45:00,
2013-05-14 17:54:00,86.0,56.0,30.00,East,100,2.0,10.0,36,0.00,,,0.00,,2013-05-14 22:54:00,
2013-05-14 18:03:00,86.0,56.0,30.00,NE,37,3.0,11.0,36,0.00,,,0.00,,2013-05-14 23:03:00,
2013-05-14 18:12:00,85.0,54.0,29.99,South,181,3.0,13.0,35,0.00,,,0.00,,2013-05-14 23:12:00,
2013-05-14 18:21:00,85.0,54.0,29.99,South,181,3.0,13.0,35,0.00,,,0.00,,2013-05-14 23:21:00,
2013-05-14 18:32:00,85.0,53.0,29.99,SE,127,4.0,13.0,34,0.00,,,0.00,,2013-05-14 23:32:00,
2013-05-14 18:44:00,85.0,53.0,29.99,SE,127,4.0,13.0,34,0.00,,,0.00,,2013-05-14 23:44:00,
2013-05-14 18:52:00,85.0,57.0,29.99,North,1,1.0,10.0,38,0.00,,,0.00,,2013-05-14 23:52:00,
2013-05-14 19:02:00,84.0,56.0,29.98,ENE,70,1.0,8.0,39,0.00,,,0.00,,2013-05-15 00:02:00,
2013-05-14 19:11:00,84.0,56.0,29.98,ENE,70,1.0,8.0,39,0.00,,,0.00,,2013-05-15 00:11:00,
2013-05-14 19:21:00,83.0,56.0,29.98,SSE,157,2.0,10.0,40,0.00,,,0.00,,2013-05-15 00:21:00,
2013-05-14 19:32:00,83.0,55.0,29.98,SSE,153,4.0,10.0,39,0.00,,,0.00,,2013-05-15 00:32:00,
2013-05-14 19:41:00,82.0,55.0,29.98,SE,143,2.0,9.0,39,0.00,,,0.00,,2013-05-15 00:41:00,
2013-05-14 19:51:00,82.0,55.0,29.98,SE,143,2.0,9.0,39,0.00,,,0.00,,2013-05-15 00:51:00,
2013-05-14 20:01:00,81.0,55.0,29.97,SSE,167,1.0,11.0,41,0.00,,,0.00,,2013-05-15 01:01:00,
2013-05-14 20:11:00,81.0,55.0,29.98,ESE,120,1.0,11.0,41,0.00,,,0.00,,2013-05-15 01:11:00,
2013-05-14 20:21:00,81.0,55.0,29.98,ESE,120,1.0,11.0,41,0.00,,,0.00,,2013-05-15 01:21:00,
2013-05-14 20:31:00,80.0,55.0,29.98,NNE,18,0.0,6.0,42,0.00,,,0.00,,2013-05-15 01:31:00,
2013-05-14 20:42:00,80.0,55.0,29.98,SW,233,0.0,8.0,43,0.00,,,0.00,,2013-05-15 01:42:00,
2013-05-14 20:52:00,80.0,55.0,29.98,SW,233,0.0,8.0,43,0.00,,,0.00,,2013-05-15 01:52:00,
2013-05-14 21:02:00,79.0,56.0,29.98,East,84,0.0,4.0,45,0.00,,,0.00,,2013-05-15 02:02:00,
2013-05-14 21:11:00,78.0,56.0,29.99,SSE,157,1.0,6.0,47,0.00,,,0.00,,2013-05-15 02:11:00,
2013-05-14 21:21:00,78.0,56.0,29.99,SSE,157,1.0,6.0,47,0.00,,,0.00,,2013-05-15 02:21:00,
2013-05-14 21:31:00,78.0,57.0,29.99,NNE,24,0.0,4.0,49,0.00,,,0.00,,2013-05-15 02:31:00,
2013-05-14 21:42:00,77.0,57.0,30.00,SW,228,0.0,4.0,50,0.00,,,0.00,,2013-05-15 02:42:00,
2013-05-14 21:52:00,77.0,57.0,30.00,SW,228,0.0,4.0,50,0.00,,,0.00,,2013-05-15 02:52:00,
2013-05-14 22:01:00,77.0,58.0,29.99,North,352,1.0,5.0,52,0.00,,,0.00,,2013-05-15 03:01:00,
2013-05-14 22:12:00,77.0,58.0,29.99,North,352,1.0,5.0,52,0.00,,,0.00,,2013-05-15 03:12:00,
2013-05-14 22:22:00,77.0,59.0,30.00,ESE,103,0.0,4.0,54,0.00,,,0.00,,2013-05-15 03:22:00,
2013-05-14 22:33:00,76.0,59.0,30.01,NE,49,0.0,6.0,55,0.00,,,0.00,,2013-05-15 03:33:00,
2013-05-14 22:44:00,76.0,59.0,30.01,SE,128,1.0,5.0,56,0.00,,,0.00,,2013-05-15 03:44:00,
2013-05-14 22:54:00,76.0,59.0,30.01,SE,128,1.0,5.0,56,0.00,,,0.00,,2013-05-15 03:54:00,
2013-05-14 23:03:00,75.0,59.0,30.01,South,183,1.0,7.0,58,0.00,,,0.00,,2013-05-15 04:03:00,
2013-05-14 23:12:00,75.0,59.0,30.01,South,183,1.0,7.0,58,0.00,,,0.00,,2013-05-15 04:12:00,
2013-05-14 23:24:00,75.0,60.0,30.02,NE,38,0.0,6.0,60,0.00,,,0.00,,2013-05-15 04:24:00,
2013-05-14 23:33:00,75.0,61.0,30.02,SSE,162,1.0,7.0,62,0.00,,,0.00,,2013-05-15 04:33:00,
2013-05-14 23:42:00,75.0,61.0,30.02,SSE,162,1.0,7.0,62,0.00,,,0.00,,2013-05-15 04:42:00,
2013-05-14 23:52:00,75.0,62.0,30.03,ENE,75,1.0,6.0,63,0.00,,,0.00,,2013-05-15 04:52:00,